Time,TemperatureF,DewpointF,PressureIn,WindDirection,WindDirectionDegrees,WindSpeedMPH,WindSpeedGustMPH,Humidity,HourlyPrecipIn,Conditions,Clouds,dailyrainin,SoftwareType,DateUTC
2013-02-23 00:03:00,30.0,20.0,30.26,SE,136,8.0,-999.0,66,-99.99,,,-99.99,,2013-02-23 05:03:00,
2013-02-23 00:12:00,30.0,20.0,30.26,SE,136,8.0,-999.0,66,-99.99,,,-99.99,,2013-02-23 05:12:00,
2013-02-23 00:23:00,30.0,21.0,30.26,SE,134,7.0,-999.0,68,-99.99,,,-99.99,,2013-02-23 05:23:00,
2013-02-23 00:33:00,30.0,21.0,30.25,SSE,150,8.0,-999.0,69,-99.99,,,-99.99,,2013-02-23 05:33:00,
2013-02-23 00:42:00,30.0,21.0,30.25,SSE,150,8.0,-999.0,69,-99.99,,,-99.99,,2013-02-23 05:42:00,
2013-02-23 00:52:00,30.0,22.0,30.25,SW,219,7.0,-999.0,72,-99.99,,,-99.99,,2013-02-23 05:52:00,
2013-02-23 01:02:00,30.0,22.0,30.25,South,169,12.0,-999.0,72,-99.99,,,-99.99,,2013-02-23 06:02:00,
2013-02-23 01:11:00,30.0,22.0,30.25,South,169,12.0,-999.0,72,-99.99,,,-99.99,,2013-02-23 06:11:00,
2013-02-23 01:23:00,30.0,22.0,30.24,WSW,242,9.0,-999.0,73,-99.99,,,-99.99,,2013-02-23 06:23:00,
2013-02-23 01:32:00,30.0,23.0,30.23,South,182,9.0,-999.0,74,-99.99,,,-99.99,,2013-02-23 06:32:00,
2013-02-23 01:42:00,30.0,23.0,30.23,South,182,9.0,-999.0,74,-99.99,,,-99.99,,2013-02-23 06:42:00,
2013-02-23 01:52:00,31.0,24.0,30.23,SSW,207,8.0,-999.0,74,-99.99,,,-99.99,,2013-02-23 06:52:00,
2013-02-23 02:01:00,31.0,24.0,30.23,South,186,9.0,-999.0,75,-99.99,,,-99.99,,2013-02-23 07:01:00,
2013-02-23 02:11:00,31.0,24.0,30.23,South,186,9.0,-999.0,75,-99.99,,,-99.99,,2013-02-23 07:11:00,
2013-02-23 02:21:00,31.0,24.0,30.23,SW,221,9.0,-999.0,75,-99.99,,,-99.99,,2013-02-23 07:21:00,
2013-02-23 02:32:00,31.0,24.0,30.22,South,175,10.0,-999.0,76,-99.99,,,-99.99,,2013-02-23 07:32:00,
2013-02-23 02:42:00,31.0,24.0,30.22,South,175,10.0,-999.0,76,-99.99,,,-99.99,,2013-02-23 07:42:00,
2013-02-23 02:52:00,31.0,24.0,30.21,South,186,10.0,-999.0,75,-99.99,,,-99.99,,2013-02-23 07:52:00,
2013-02-23 03:01:00,31.0,24.0,30.20,South,171,9.0,-999.0,74,-99.99,,,-99.99,,2013-02-23 08:01:00,
2013-02-23 03:11:00,31.0,24.0,30.20,South,171,9.0,-999.0,74,-99.99,,,-99.99,,2013-02-23 08:11:00,
2013-02-23 03:21:00,32.0,25.0,30.19,SSW,205,10.0,-999.0,74,-99.99,,,-99.99,,2013-02-23 08:21:00,
2013-02-23 03:32:00,32.0,25.0,30.19,ESE,111,6.0,-999.0,75,-99.99,,,-99.99,,2013-02-23 08:32:00,
2013-02-23 03:42:00,32.0,25.0,30.19,ESE,111,6.0,-999.0,75,-99.99,,,-99.99,,2013-02-23 08:42:00,
2013-02-23 03:53:00,32.0,25.0,30.18,SSE,167,8.0,-999.0,76,-99.99,,,-99.99,,2013-02-23 08:53:00,
2013-02-23 04:02:00,32.0,26.0,30.17,WSW,237,10.0,-999.0,77,-99.99,,,-99.99,,2013-02-23 09:02:00,
2013-02-23 04:11:00,32.0,26.0,30.17,WSW,237,10.0,-999.0,77,-99.99,,,-99.99,,2013-02-23 09:11:00,
2013-02-23 04:22:00,32.0,26.0,30.16,SSE,161,7.0,-999.0,78,-99.99,,,-99.99,,2013-02-23 09:22:00,
2013-02-23 04:32:00,32.0,26.0,30.17,SSW,194,7.0,-999.0,78,-99.99,,,-99.99,,2013-02-23 09:32:00,
2013-02-23 04:42:00,32.0,26.0,30.17,SSW,194,7.0,-999.0,78,-99.99,,,-99.99,,2013-02-23 09:42:00,
2013-02-23 04:52:00,32.0,26.0,30.17,SSW,198,10.0,-999.0,79,-99.99,,,-99.99,,2013-02-23 09:52:00,
2013-02-23 05:01:00,32.0,26.0,30.16,South,191,10.0,-999.0,79,-99.99,,,-99.99,,2013-02-23 10:01:00,
2013-02-23 05:11:00,32.0,26.0,30.16,South,191,10.0,-999.0,79,-99.99,,,-99.99,,2013-02-23 10:11:00,
2013-02-23 05:21:00,33.0,27.0,30.15,NNW,329,9.0,-999.0,79,-99.99,,,-99.99,,2013-02-23 10:21:00,
2013-02-23 05:32:00,33.0,27.0,30.15,ESE,115,8.0,-999.0,79,-99.99,,,-99.99,,2013-02-23 10:32:00,
2013-02-23 05:42:00,33.0,27.0,30.15,ESE,115,8.0,-999.0,79,-99.99,,,-99.99,,2013-02-23 10:42:00,
2013-02-23 05:52:00,34.0,28.0,30.14,SSE,165,11.0,-999.0,78,-99.99,,,-99.99,,2013-02-23 10:52:00,
2013-02-23 06:02:00,34.0,28.0,30.13,SSW,207,9.0,-999.0,78,-99.99,,,-99.99,,2013-02-23 11:02:00,
2013-02-23 06:11:00,34.0,28.0,30.13,SSW,207,9.0,-999.0,78,-99.99,,,-99.99,,2013-02-23 11:11:00,
2013-02-23 06:22:00,34.0,28.0,30.13,NW,321,7.0,-999.0,78,-99.99,,,-99.99,,2013-02-23 11:22:00,
2013-02-23 06:32:00,34.0,28.0,30.12,North,360,12.0,-999.0,78,-99.99,,,-99.99,,2013-02-23 11:32:00,
2013-02-23 06:42:00,34.0,28.0,30.12,North,360,12.0,-999.0,78,-99.99,,,-99.99,,2013-02-23 11:42:00,
2013-02-23 06:53:00,34.0,28.0,30.12,East,82,8.0,-999.0,78,-99.99,,,-99.99,,2013-02-23 11:53:00,
2013-02-23 07:02:00,34.0,28.0,30.12,SE,140,6.0,-999.0,78,-99.99,,,-99.99,,2013-02-23 12:02:00,
2013-02-23 07:11:00,34.0,28.0,30.12,SE,140,6.0,-999.0,78,-99.99,,,-99.99,,2013-02-23 12:11:00,
2013-02-23 07:21:00,34.0,28.0,30.11,SSW,209,7.0,-999.0,78,-99.99,,,-99.99,,2013-02-23 12:21:00,
2013-02-23 07:32:00,34.0,28.0,30.11,SE,137,8.0,-999.0,78,-99.99,,,-99.99,,2013-02-23 12:32:00,
2013-02-23 07:42:00,34.0,28.0,30.11,SE,137,8.0,-999.0,78,-99.99,,,-99.99,,2013-02-23 12:42:00,
2013-02-23 07:53:00,35.0,29.0,30.11,SW,223,9.0,-999.0,78,-99.99,,,-99.99,,2013-02-23 12:53:00,
2013-02-23 08:01:00,35.0,29.0,30.11,SW,223,9.0,-999.0,78,-99.99,,,-99.99,,2013-02-23 13:01:00,
2013-02-23 08:11:00,35.0,29.0,30.11,SW,223,9.0,-999.0,78,-99.99,,,-99.99,,2013-02-23 13:11:00,
2013-02-23 08:22:00,35.0,29.0,30.11,South,190,11.0,-999.0,79,-99.99,,,-99.99,,2013-02-23 13:22:00,
2013-02-23 08:32:00,35.0,29.0,30.12,SE,146,10.0,-999.0,79,-99.99,,,-99.99,,2013-02-23 13:32:00,
2013-02-23 08:42:00,35.0,29.0,30.12,SE,146,10.0,-999.0,79,-99.99,,,-99.99,,2013-02-23 13:42:00,
2013-02-23 08:52:00,35.0,29.0,30.11,South,186,8.0,-999.0,80,-99.99,,,-99.99,,2013-02-23 13:52:00,
2013-02-23 09:02:00,35.0,29.0,30.11,South,186,8.0,-999.0,80,-99.99,,,-99.99,,2013-02-23 14:02:00,
2013-02-23 09:11:00,35.0,29.0,30.11,South,186,8.0,-999.0,80,-99.99,,,-99.99,,2013-02-23 14:11:00,
2013-02-23 09:22:00,35.0,30.0,30.11,South,186,5.0,-999.0,81,-99.99,,,-99.99,,2013-02-23 14:22:00,
2013-02-23 09:32:00,35.0,30.0,30.11,SSW,192,4.0,-999.0,81,-99.99,,,-99.99,,2013-02-23 14:32:00,
2013-02-23 09:42:00,35.0,30.0,30.11,SSW,192,4.0,-999.0,81,-99.99,,,-99.99,,2013-02-23 14:42:00,
2013-02-23 09:52:00,35.0,30.0,30.09,South,169,6.0,-999.0,81,-99.99,,,-99.99,,2013-02-23 14:52:00,
2013-02-23 10:02:00,35.0,30.0,30.09,SE,142,4.0,-999.0,81,-99.99,,,-99.99,,2013-02-23 15:02:00,
2013-02-23 10:11:00,35.0,30.0,30.09,SE,142,4.0,-999.0,81,-99.99,,,-99.99,,2013-02-23 15:11:00,
2013-02-23 10:22:00,36.0,31.0,30.09,SE,125,5.0,-999.0,81,-99.99,,,-99.99,,2013-02-23 15:22:00,
2013-02-23 10:32:00,36.0,31.0,30.07,SSE,153,5.0,-999.0,81,-99.99,,,-99.99,,2013-02-23 15:32:00,
2013-02-23 10:42:00,36.0,31.0,30.07,SSE,153,5.0,-999.0,81,-99.99,,,-99.99,,2013-02-23 15:42:00,
2013-02-23 10:52:00,36.0,31.0,30.06,ESE,117,4.0,-999.0,82,-99.99,,,-99.99,,2013-02-23 15:52:00,
2013-02-23 11:01:00,36.0,31.0,30.06,South,170,7.0,-999.0,81,-99.99,,,-99.99,,2013-02-23 16:01:00,
2013-02-23 11:11:00,36.0,31.0,30.06,South,170,7.0,-999.0,81,-99.99,,,-99.99,,2013-02-23 16:11:00,
2013-02-23 11:21:00,37.0,31.0,30.04,South,173,5.0,-999.0,80,-99.99,,,-99.99,,2013-02-23 16:21:00,
2013-02-23 11:32:00,37.0,31.0,30.04,South,181,6.0,-999.0,80,-99.99,,,-99.99,,2013-02-23 16:32:00,
2013-02-23 11:42:00,37.0,31.0,30.04,South,181,6.0,-999.0,80,-99.99,,,-99.99,,2013-02-23 16:42:00,
2013-02-23 11:52:00,37.0,31.0,30.04,South,181,6.0,-999.0,80,-99.99,,,-99.99,,2013-02-23 16:52:00,
2013-02-23 12:01:00,38.0,32.0,30.03,SSW,193,8.0,-999.0,80,-99.99,,,-99.99,,2013-02-23 17:01:00,
2013-02-23 12:11:00,38.0,32.0,30.03,SSW,193,8.0,-999.0,80,-99.99,,,-99.99,,2013-02-23 17:11:00,
2013-02-23 12:22:00,38.0,32.0,30.03,South,171,6.0,-999.0,80,-99.99,,,-99.99,,2013-02-23 17:22:00,
2013-02-23 12:32:00,37.0,32.0,30.04,South,175,9.0,-999.0,81,-99.99,,,-99.99,,2013-02-23 17:32:00,
2013-02-23 12:42:00,37.0,32.0,30.04,South,175,9.0,-999.0,81,-99.99,,,-99.99,,2013-02-23 17:42:00,
2013-02-23 12:52:00,38.0,33.0,30.03,SW,221,7.0,-999.0,82,-99.99,,,-99.99,,2013-02-23 17:52:00,
2013-02-23 13:02:00,38.0,33.0,30.03,SW,221,7.0,-999.0,82,-99.99,,,-99.99,,2013-02-23 18:02:00,
2013-02-23 13:12:00,38.0,33.0,30.03,SW,221,7.0,-999.0,82,-99.99,,,-99.99,,2013-02-23 18:12:00,
2013-02-23 13:22:00,37.0,32.0,30.03,SSW,194,8.0,-999.0,83,-99.99,,,-99.99,,2013-02-23 18:22:00,
2013-02-23 13:32:00,37.0,33.0,30.02,SSE,163,6.0,-999.0,84,-99.99,,,-99.99,,2013-02-23 18:32:00,
2013-02-23 13:42:00,37.0,33.0,30.02,SSE,163,6.0,-999.0,84,-99.99,,,-99.99,,2013-02-23 18:42:00,
2013-02-23 13:52:00,37.0,33.0,30.01,South,175,6.0,-999.0,84,-99.99,,,-99.99,,2013-02-23 18:52:00,
2013-02-23 14:01:00,37.0,33.0,30.01,SSW,193,6.0,-999.0,84,-99.99,,,-99.99,,2013-02-23 19:01:00,
2013-02-23 14:11:00,37.0,33.0,30.01,SSW,193,6.0,-999.0,84,-99.99,,,-99.99,,2013-02-23 19:11:00,
2013-02-23 14:21:00,38.0,34.0,29.99,SSE,158,3.0,-999.0,84,-99.99,,,-99.99,,2013-02-23 19:21:00,
2013-02-23 14:32:00,38.0,33.0,29.99,South,173,6.0,-999.0,83,-99.99,,,-99.99,,2013-02-23 19:32:00,
2013-02-23 14:42:00,38.0,33.0,29.99,South,173,6.0,-999.0,83,-99.99,,,-99.99,,2013-02-23 19:42:00,
2013-02-23 14:52:00,38.0,33.0,29.98,SSE,158,6.0,-999.0,83,-99.99,,,-99.99,,2013-02-23 19:52:00,
2013-02-23 15:01:00,38.0,33.0,29.98,South,185,3.0,-999.0,83,-99.99,,,-99.99,,2013-02-23 20:01:00,
2013-02-23 15:11:00,38.0,33.0,29.98,South,185,3.0,-999.0,83,-99.99,,,-99.99,,2013-02-23 20:11:00,
2013-02-23 15:21:00,38.0,33.0,29.98,South,180,3.0,-999.0,83,-99.99,,,-99.99,,2013-02-23 20:21:00,
2013-02-23 15:32:00,38.0,34.0,29.98,SSE,157,4.0,-999.0,84,-99.99,,,-99.99,,2013-02-23 20:32:00,
2013-02-23 15:42:00,38.0,34.0,29.98,SSE,157,4.0,-999.0,84,-99.99,,,-99.99,,2013-02-23 20:42:00,
2013-02-23 15:53:00,38.0,34.0,29.97,South,185,5.0,-999.0,84,-99.99,,,-99.99,,2013-02-23 20:53:00,
2013-02-23 16:01:00,38.0,34.0,29.96,SE,143,2.0,-999.0,85,-99.99,,,-99.99,,2013-02-23 21:01:00,
2013-02-23 16:11:00,38.0,34.0,29.96,SE,143,2.0,-999.0,85,-99.99,,,-99.99,,2013-02-23 21:11:00,
2013-02-23 16:22:00,38.0,34.0,29.96,SE,143,2.0,-999.0,85,-99.99,,,-99.99,,2013-02-23 21:22:00,
2013-02-23 16:32:00,38.0,34.0,29.95,SSE,148,2.0,-999.0,85,-99.99,,,-99.99,,2013-02-23 21:32:00,
2013-02-23 16:42:00,38.0,34.0,29.95,SSE,148,2.0,-999.0,85,-99.99,,,-99.99,,2013-02-23 21:42:00,
2013-02-23 16:52:00,38.0,34.0,29.96,SSW,194,1.0,-999.0,85,-99.99,,,-99.99,,2013-02-23 21:52:00,
2013-02-23 17:02:00,38.0,34.0,29.95,SSW,195,1.0,-999.0,85,-99.99,,,-99.99,,2013-02-23 22:02:00,
2013-02-23 17:11:00,38.0,34.0,29.95,SSE,163,1.0,-999.0,85,-99.99,,,-99.99,,2013-02-23 22:11:00,
2013-02-23 17:22:00,38.0,34.0,29.95,SSE,163,1.0,-999.0,85,-99.99,,,-99.99,,2013-02-23 22:22:00,
2013-02-23 17:32:00,38.0,34.0,29.94,ENE,78,0.0,-999.0,85,-99.99,,,-99.99,,2013-02-23 22:32:00,
2013-02-23 17:42:00,38.0,34.0,29.94,ENE,78,0.0,-999.0,85,-99.99,,,-99.99,,2013-02-23 22:42:00,
2013-02-23 17:52:00,38.0,34.0,29.94,ESE,121,3.0,-999.0,85,-99.99,,,-99.99,,2013-02-23 22:52:00,
2013-02-23 18:01:00,38.0,34.0,29.94,SSE,148,4.0,-999.0,85,-99.99,,,-99.99,,2013-02-23 23:01:00,
2013-02-23 18:11:00,38.0,34.0,29.94,SSE,148,4.0,-999.0,85,-99.99,,,-99.99,,2013-02-23 23:11:00,
2013-02-23 18:22:00,38.0,34.0,29.93,SSE,153,4.0,-999.0,85,-99.99,,,-99.99,,2013-02-23 23:22:00,
2013-02-23 18:32:00,38.0,34.0,29.92,ESE,115,5.0,-999.0,85,-99.99,,,-99.99,,2013-02-23 23:32:00,
2013-02-23 18:42:00,38.0,34.0,29.92,ESE,115,5.0,-999.0,85,-99.99,,,-99.99,,2013-02-23 23:42:00,
2013-02-23 18:52:00,38.0,34.0,29.93,SE,142,6.0,-999.0,85,-99.99,,,-99.99,,2013-02-23 23:52:00,
2013-02-23 19:01:00,38.0,34.0,29.92,SW,224,5.0,-999.0,85,-99.99,,,-99.99,,2013-02-24 00:01:00,
2013-02-23 19:11:00,38.0,34.0,29.92,SW,224,5.0,-999.0,85,-99.99,,,-99.99,,2013-02-24 00:11:00,
2013-02-23 19:22:00,38.0,34.0,29.93,South,175,3.0,-999.0,85,-99.99,,,-99.99,,2013-02-24 00:22:00,
2013-02-23 19:32:00,37.0,33.0,29.93,South,170,3.0,-999.0,85,-99.99,,,-99.99,,2013-02-24 00:32:00,
2013-02-23 19:42:00,37.0,33.0,29.93,South,170,3.0,-999.0,85,-99.99,,,-99.99,,2013-02-24 00:42:00,
2013-02-23 19:52:00,37.0,33.0,29.93,SSE,168,1.0,-999.0,85,-99.99,,,-99.99,,2013-02-24 00:52:00,
2013-02-23 20:01:00,37.0,33.0,29.93,SSE,168,0.0,-999.0,85,-99.99,,,-99.99,,2013-02-24 01:01:00,
2013-02-23 20:11:00,37.0,33.0,29.93,SSE,168,0.0,-999.0,85,-99.99,,,-99.99,,2013-02-24 01:11:00,
2013-02-23 20:22:00,37.0,33.0,29.93,SSE,168,1.0,-999.0,86,-99.99,,,-99.99,,2013-02-24 01:22:00,
2013-02-23 20:32:00,37.0,33.0,29.93,South,188,2.0,-999.0,86,-99.99,,,-99.99,,2013-02-24 01:32:00,
2013-02-23 20:42:00,37.0,33.0,29.93,South,188,2.0,-999.0,86,-99.99,,,-99.99,,2013-02-24 01:42:00,
2013-02-23 20:52:00,37.0,33.0,29.93,ESE,117,2.0,-999.0,86,-99.99,,,-99.99,,2013-02-24 01:52:00,
2013-02-23 21:01:00,37.0,33.0,29.92,SSW,195,3.0,-999.0,86,-99.99,,,-99.99,,2013-02-24 02:01:00,
2013-02-23 21:11:00,37.0,33.0,29.92,SSW,195,3.0,-999.0,86,-99.99,,,-99.99,,2013-02-24 02:11:00,
2013-02-23 21:22:00,37.0,33.0,29.92,ESE,114,1.0,-999.0,85,-99.99,,,-99.99,,2013-02-24 02:22:00,
2013-02-23 21:32:00,37.0,33.0,29.92,ESE,114,1.0,-999.0,85,-99.99,,,-99.99,,2013-02-24 02:32:00,
2013-02-23 21:42:00,37.0,33.0,29.92,ESE,114,1.0,-999.0,85,-99.99,,,-99.99,,2013-02-24 02:42:00,
2013-02-23 21:52:00,36.0,32.0,29.90,ESE,121,1.0,-999.0,86,-99.99,,,-99.99,,2013-02-24 02:52:00,
2013-02-23 22:02:00,36.0,32.0,29.90,ESE,121,1.0,-999.0,86,-99.99,,,-99.99,,2013-02-24 03:02:00,
2013-02-23 22:12:00,36.0,32.0,29.90,ESE,121,1.0,-999.0,86,-99.99,,,-99.99,,2013-02-24 03:12:00,
2013-02-23 22:22:00,35.0,31.0,29.89,NE,53,2.0,-999.0,86,-99.99,,,-99.99,,2013-02-24 03:22:00,
2013-02-23 22:32:00,35.0,32.0,29.89,NE,49,0.0,-999.0,87,-99.99,,,-99.99,,2013-02-24 03:32:00,
2013-02-23 22:42:00,35.0,32.0,29.89,NE,49,0.0,-999.0,87,-99.99,,,-99.99,,2013-02-24 03:42:00,
2013-02-23 22:52:00,35.0,32.0,29.88,NE,46,1.0,-999.0,88,-99.99,,,-99.99,,2013-02-24 03:52:00,
2013-02-23 23:02:00,35.0,32.0,29.88,NE,46,1.0,-999.0,88,-99.99,,,-99.99,,2013-02-24 04:02:00,
2013-02-23 23:11:00,35.0,32.0,29.88,NE,46,1.0,-999.0,88,-99.99,,,-99.99,,2013-02-24 04:11:00,
2013-02-23 23:21:00,35.0,32.0,29.88,NE,46,0.0,-999.0,88,-99.99,,,-99.99,,2013-02-24 04:21:00,
2013-02-23 23:32:00,34.0,31.0,29.88,NE,46,1.0,-999.0,89,-99.99,,,-99.99,,2013-02-24 04:32:00,
2013-02-23 23:42:00,34.0,31.0,29.88,NE,46,1.0,-999.0,89,-99.99,,,-99.99,,2013-02-24 04:42:00,
2013-02-23 23:52:00,34.0,31.0,29.88,NE,46,0.0,-999.0,89,-99.99,,,-99.99,,2013-02-24 04:52:00,